Zurück zum Katalog

STARLINK-30422

AktivKommunikationVLEO
NORAD 57826·PAYLOAD·🇺🇸 United States

Gestartet Sep 9, 2023 von Cape Canaveral Space Force Station

Loading…

Nächste Überflüge (nächste 24 Stunden)

TLE

AktuellSource: CelesTrak SupGP

Epoche: Sep 14, 2026, 22:17 UTC

1 57826C 23138U   26257.92895833  .00029941  00000+0  10846-2 0  2576
2 57826  43.0022 245.5215 0001318 264.9071 298.3345 15.27560390    10

Verfolge STARLINK-30422 in Echtzeit mit AllMySat

Download on the App Store